Location: Hurden
(47.2135°N, 8.8014°E)
Time: 23:42:21
(UTC+00:00)

Daily predictions for brighter satellites

Satellite Brightness Start Highest point End
(mag) Time Altitude Azimuth Time Altitude Azimuth Time Altitude Azimuth
Meteor 2-20 4.5 19:50:31 10° S 19:56:36 77° E 20:02:41 10° NNE
Resurs 1-3 4.4 19:54:21 10° S 19:58:38 53° W 20:02:58 10° NNW
IGS 5A 3.5 19:58:05 10° SSE 20:02:15 87° WSW 20:06:27 10° NNW
Terra 3.5 19:59:19 10° ESE 20:02:50 21° ENE 20:06:20 10° NNE
SPOT 5 4.1 20:00:43 10° SE 20:05:06 30° ENE 20:09:18 10° N
Cosmos 2263 Rocket 3.7 20:00:06 10° NW 20:05:07 33° WSW 20:10:07 10° SSW
Cosmos 1461 2.9 20:01:33 10° NW 20:05:49 78° NE 20:09:51 10° SE
SPOT 3 Rocket 3.6 20:01:06 10° SSE 20:06:17 88° ENE 20:11:31 10° NNW
Ariane Rocket 3.9 20:01:51 10° S 20:06:47 50° W 20:11:47 10° NNW
Cosmos 1727 Rocket 4.0 20:02:23 10° S 20:08:41 76° E 20:14:56 10° NNE
FALCON 9 DEB 4.0 20:07:10 10° SSW 20:09:40 23° SE 20:12:11 10° E
Cosmos 1908 3.7 20:06:21 10° N 20:10:07 45° ENE 20:13:48 10° SSE
Cosmos 1315 Rocket 3.9 20:07:06 10° NNW 20:11:05 47° W 20:15:01 10° S
ATLAS CENTAUR R/B 2.4 20:07:26 10° NNW 20:11:31 40° NE 20:15:49 10° ESE
MetOp-B 4.2 20:08:12 10° SSE 20:13:34 85° ENE 20:18:57 10° NNW
In-Cosmos 22 4.1 20:08:39 10° S 20:13:55 79° E 20:19:14 10° NNE
CZ-2C R/B 3.9 20:09:59 10° NNE 20:14:43 59° ESE 20:19:25 10° S
Cosmos 1025 Rocket 3.8 20:12:02 10° SSE 20:16:01 35° E 20:19:59 10° NNE
FALCON 9 DEB 4.2 20:13:49 10° S 20:16:13 20° SE 20:18:37 10° E
Lacrosse 5 3.4 20:12:04 10° WNW 20:16:20 28° SW 20:20:35 10° S
DNEPR-1 R/B 4.4 20:14:41 10° NNW 20:18:43 41° NE 20:22:52 10° ESE
FALCON 9 DEB 3.9 20:17:09 10° SSW 20:19:48 26° SE 20:22:28 10° E
Cosmos 1707 3.7 20:16:57 10° SSW 20:20:44 51° WNW 20:24:33 10° N
Cosmos 1626 2.8 20:18:33 10° SSE 20:21:56 35° E 20:25:21 10° NNE
CARTOSAT-1 3.8 20:23:42 10° SSE 20:27:56 60° ENE 20:32:12 10° N
Cosmos 1802 Rocket 4.2 20:21:46 10° N 20:27:58 59° ENE 20:34:13 10° SSE
Cosmos 1110 Rocket 4.0 20:25:01 10° S 20:30:08 67° ESE 20:35:20 10° NNE
Landsat 7 4.4 20:25:40 10° S 20:30:20 55° W 20:35:02 10° NNW
Cosmos 1459 Rocket 3.9 20:27:45 10° N 20:33:51 78° E 20:39:55 10° SSE
USA 245 4.2 20:30:10 10° SSE 20:35:08 85° WSW 20:41:06 10° NNW
Meteor 2-11 Rocket 4.5 20:29:03 10° N 20:35:11 73° E 20:41:13 10° SSE
Lacrosse 5 rocket 0.9 20:32:21 10° SW 20:36:01 66° SE 20:39:35 10° ENE
Cosmos 2333 Rocket 2.7 20:31:12 10° S 20:36:33 42° ESE 20:41:55 10° NE
Cosmos 1975 Rocket 3.2 20:33:06 10° SSW 20:37:27 76° W 20:41:53 10° N
Cosmos 2219 Rocket 2.8 20:34:13 10° S 20:39:24 38° ESE 20:44:36 10° NE
Resurs 01 Rocket 3.1 20:38:23 10° SSW 20:42:21 33° W 20:46:23 10° NNW
Cosmos 1844 3.7 20:39:00 10° NNW 20:44:35 83° WSW 20:49:33 13° SSE
FALCON 9 DEB 3.5 20:41:53 10° WSW 20:45:18 66° NNW 20:48:42 10° ENE
Cosmos 1000 Rocket 4.5 20:39:44 10° S 20:45:52 85° E 20:52:03 10° N
H-2A R/B 4.5 20:47:14 10° NE 20:50:48 28° E 20:53:09 17° SE
Cosmos 405 3.2 20:48:07 10° N 20:51:30 52° ENE 20:53:48 18° SSE
ATLAS 3B R/B 2.7 20:47:36 10° SSW 20:53:59 59° ESE 21:00:36 10° NE
SL-14 R/B 3.5 20:50:36 13° S 20:54:04 56° E 20:58:01 10° NNE
Cosmos 1953 3.2 20:52:46 10° NNW 20:56:41 47° W 21:00:34 10° SSW
Cosmos 2237 Rocket 3.8 20:57:12 14° SE 20:59:19 17° E 21:02:46 10° ENE
Cosmos 1864 Rocket 4.5 20:54:51 10° N 21:01:05 77° E 21:06:14 15° SSE
Cosmos 2360 Rocket 2.7 20:57:25 10° SW 21:03:01 63° WNW 21:08:38 10° NNE
Meteor 1-24 Rocket 4.1 21:01:21 16° SSE 21:05:17 44° E 21:10:30 10° NNE
Cosmos 1674 4.1 21:02:34 10° SW 21:06:00 35° WNW 21:09:28 10° N
SL-16 R/B 4.2 21:01:06 10° WSW 21:06:07 32° NW 21:11:11 10° NNE
Geosat 4.1 21:02:17 17° SSE 21:06:14 76° WSW 21:11:18 10° NNW
Cosmos 2322 Rocket 3.8 21:01:21 10° WSW 21:06:39 38° NW 21:11:59 10° NNE
Cosmos 2061 Rocket 4.1 21:01:20 10° N 21:07:49 89° E 21:13:18 15° S
ERS-1 Rocket 3.0 21:04:15 15° S 21:08:27 79° WSW 21:13:32 10° NNW
Cosmos 1455 4.3 21:07:35 10° NNE 21:10:02 16° ENE 21:11:58 12° ESE
Spot 2 Rocket 4.1 21:05:53 11° S 21:10:36 52° W 21:15:36 10° NNW
Cosmos 2123 Rocket 4.0 21:04:57 10° S 21:11:16 84° E 21:17:37 10° N
Cosmos 2233 Rocket 4.1 21:10:41 10° N 21:16:49 65° E 21:21:17 19° SSE
Cosmos 1544 Rocket 4.4 21:14:16 10° NNW 21:18:34 47° W 21:22:21 13° SSW
USA 215 3.9 21:13:18 10° ENE 21:18:57 30° SE 21:23:57 13° S
ARIANE 5 R/B 3.5 21:15:26 12° S 21:19:15 44° W 21:23:34 10° NNW
CZ-4B DEB 4.1 21:17:43 27° SSE 21:19:18 82° ENE 21:22:29 10° N
Cosmos 1300 2.6 21:16:13 10° N 21:20:03 85° W 21:22:22 23° S
Cosmos 1606 Rocket 4.4 21:19:06 10° N 21:23:20 39° ENE 21:25:43 22° SE
BREEZE-M DEB (TANK) 3.1 21:23:36 10° WSW 21:26:22 82° NNW 21:33:30 10° ENE
FALCON 9 DEB 2.7 21:24:38 10° WSW 21:27:45 81° SSE 21:30:54 10° ENE
Cosmos 2322 3.8 21:22:29 10° SSW 21:28:09 82° WNW 21:33:50 10° NNE
COSMOS 2428 2.7 21:22:57 10° SSW 21:28:40 73° ESE 21:34:25 10° NNE
Cosmos 1340 3.4 21:27:19 11° SSW 21:30:51 51° WNW 21:34:33 10° N
Cosmos 2278 Rocket 2.6 21:25:49 10° NNW 21:31:23 54° ENE 21:35:15 20° SE
Cosmos 1844 Rocket 4.1 21:29:53 10° NW 21:34:42 29° WSW 21:39:09 12° SSW
Cosmos 1302 Rocket 4.2 21:30:16 10° SSW 21:35:31 76° WNW 21:40:48 10° NNE
BREEZE-M DEB (TANK) 3.8 21:34:41 10° W 21:36:27 16° SW 21:36:28 16° SW
ATLAS CENTAUR R/B 3.9 21:37:09 21° SE 21:39:03 25° ESE 21:46:42 10° ENE
ALOS 2 4.5 21:37:01 12° ESE 21:39:38 20° ENE 21:42:49 10° NNE
Terra 2.3 21:36:58 19° S 21:40:12 55° W 21:44:54 10° NNW
SPOT 5 4.0 21:39:05 14° SSW 21:43:03 39° W 21:47:39 10° NNW
FALCON 9 DEB 3.4 21:42:00 10° WSW 21:45:04 59° NNW 21:48:09 10° ENE
Cosmos 1184 Rocket 4.3 21:45:38 21° E 21:45:52 21° E 21:48:25 10° NE
ATLAS CENTAUR R/B 2.8 21:46:28 10° NW 21:50:19 31° WSW 21:52:25 21° SSW
Cosmos 1607 4.2 21:44:37 10° NW 21:51:03 67° NE 21:55:31 20° SE
FALCON 9 DEB 3.2 21:48:33 10° WSW 21:51:39 65° NNW 21:54:46 10° ENE
USA 267 4.0 21:47:21 10° E 21:53:40 53° NNE 21:59:59 10° NW
FALCON 9 DEB 3.6 21:52:13 10° WSW 21:55:16 54° NNW 21:58:20 10° ENE
Cosmos 389 Rocket 2.3 21:52:58 10° NNW 21:56:25 82° W 21:57:31 41° S
Cosmos 1867 3.6 21:51:26 10° NW 21:56:55 71° WSW 21:59:50 28° SSE
Cosmos 1346 Rocket 2.7 21:55:09 29° S 21:57:10 89° WNW 22:01:13 10° N
Cosmos 2228 3.1 21:55:10 10° NNW 21:59:36 75° W 22:01:42 30° S
Cosmos 1943 Rocket 4.0 21:57:01 10° N 22:01:23 23° NE 22:05:44 10° E
Meteor 2-10 Rocket 3.6 21:58:54 10° NNW 22:03:56 65° W 22:06:40 27° S
Cosmos 1464 Rocket 4.3 21:58:47 10° N 22:05:04 58° ENE 22:08:43 26° SSE
SL-4 R/B 2.0 22:04:17 20° SW 22:06:49 50° SSE 22:10:31 10° ENE
Cosmos 1980 3.7 22:06:14 25° S 22:09:30 63° ESE 22:15:08 10° NNE
Cosmos 1441 Rocket 4.1 22:09:16 30° ESE 22:10:00 32° E 22:13:25 10° NNE
Cosmos 968 Rocket 4.2 22:06:01 10° NW 22:10:49 42° WSW 22:13:27 24° SSW
Cosmos 1486 Rocket 4.4 22:06:44 10° NNW 22:11:50 55° WSW 22:14:24 28° S
Lacrosse 5 rocket 3.3 22:12:12 10° W 22:15:21 27° NNW 22:18:28 10° NE
Meteor 1-4 Rocket 4.0 22:16:43 10° NNE 22:19:40 25° ENE 22:20:33 23° E
Cosmos 1703 3.8 22:19:03 36° SE 22:19:57 43° E 22:23:43 10° NNE
Cosmos 1992 Rocket 4.2 22:16:47 18° SSW 22:20:38 73° WNW 22:25:53 10° NNE
Cosmos 2333 Rocket 3.6 22:15:36 10° WSW 22:20:54 37° NW 22:26:12 10° NNE
Cosmos 2219 Rocket 3.5 22:18:01 10° WSW 22:23:20 40° NW 22:28:40 10° NNE
Meteor 2-1 Rocket 4.2 22:20:39 10° N 22:26:11 75° ENE 22:28:53 32° SSE
Cosmos 1354 Rocket 4.0 22:22:00 10° NNW 22:27:22 80° WSW 22:29:48 33° SSE
Iridium 2 4.0 22:30:01 36° SW 22:31:18 57° W 22:35:00 10° N
Okean 1-7 Rocket 3.6 22:32:54 40° SSE 22:34:24 66° E 22:38:49 10° NNE
Spot 4 3.8 22:33:32 36° S 22:35:30 75° WSW 22:40:18 10° NNW
Cosmos 1328 4.3 22:38:11 39° SE 22:38:53 44° E 22:42:37 10° NNE
SL-16 R/B 2.9 22:38:05 30° SE 22:39:53 37° ESE 22:45:03 10° NE
Cosmos 2034 Rocket 4.0 22:34:20 10° N 22:40:33 74° E 22:43:40 31° SSE
Cosmos 2237 Rocket 2.2 22:38:57 22° SSW 22:42:39 81° WNW 22:48:19 10° NNE
Cosmos 2058 Rocket 3.2 22:39:27 10° NNW 22:43:52 66° W 22:45:21 39° SSW
ATLAS 3B R/B 4.0 22:38:50 10° WSW 22:44:59 40° NW 22:51:24 10° NNE
NOSS 3-1 (C) 4.0 22:43:49 29° SE 22:45:03 32° ESE 22:50:20 10° NE
Cosmos 1455 3.0 22:42:13 10° NNW 22:45:51 42° W 22:46:51 34° SW
Cosmos 2369 Rocket 3.8 22:46:48 10° NNW 22:51:45 29° NE 22:56:41 10° ESE
NOSS 0 Rocket 4.4 22:46:59 12° SW 22:52:43 59° NW 22:58:54 10° NNE
MTI 4.2 22:52:51 10° NNE 22:55:37 46° E 22:55:37 46° E
NOSS 3-1 (A) 4.5 22:55:17 22° SE 22:56:14 23° ESE 23:00:44 10° ENE
SJ 16-02 1.9 22:57:01 10° NNW 23:01:20 52° ENE 23:03:04 32° SE
USA 215 3.2 22:55:54 10° NE 23:02:28 89° NNW 23:09:01 10° WSW
GP-B 3.7 22:58:45 10° NNE 23:03:04 47° E 23:04:24 35° SE
GEOS 3 Rocket 4.0 23:02:54 35° S 23:04:45 49° WSW 23:09:57 10° NW
Tsikada Rocket 4.0 23:06:39 33° S 23:09:36 76° E 23:15:46 10° NNE
Nimbus 7 Rocket 4.4 23:05:10 10° NNE 23:11:15 76° ESE 23:14:09 33° S
COBE Rocket 4.5 23:09:26 32° SSW 23:11:19 48° W 23:16:06 10° NNW
Cosmos 2278 Rocket 3.5 23:10:28 10° NW 23:15:07 27° WSW 23:17:05 22° SW
ALOS 2 3.0 23:14:25 38° SW 23:15:37 50° W 23:19:55 10° NNW
Cosmos 2297 3.6 23:11:10 10° NNW 23:16:51 87° ENE 23:19:35 32° SSE
Aureole 3 3.8 23:13:22 10° N 23:17:08 59° E 23:18:38 38° SE
USA 32 4.0 23:18:50 10° N 23:24:07 82° W 23:26:11 38° S
Meteor 1-11 4.1 23:28:06 36° S 23:30:31 88° E 23:36:09 10° NNE
Meteor 1-27 4.3 23:26:43 10° N 23:32:18 71° ENE 23:34:57 32° SSE
SAR-Lupe-2 3.9 23:30:22 10° N 23:33:54 58° WNW 23:34:38 46° WSW
Cosmos 1626 Rocket 4.2 23:32:57 33° SW 23:34:34 49° WNW 23:38:53 10° N
NOSS 2-3 (D) 3.7 23:35:03 46° SSE 23:35:48 52° ESE 23:40:23 10° NE
Lacrosse 4 Rocket 4.3 23:33:46 10° N 23:35:51 13° NE 23:37:55 10° ENE
USA 267 3.2 23:32:01 21° SE 23:36:34 69° SW 23:43:07 10° NW
Cosmos 1763 Rocket 4.3 23:35:44 29° SE 23:37:19 36° ESE 23:41:59 10° NE
Thor Agena Rocket 3.5 23:34:08 10° NNE 23:39:25 89° WNW 23:41:35 37° SSW
Resurs 1-4 Rocket 4.3 23:37:21 10° NE 23:40:20 15° E 23:43:18 10° ESE
BREEZE-M DEB (TANK) 3.7 23:37:08 10° WNW 23:41:10 73° N 23:54:42 10° E
Cosmos 1602 Rocket 3.9 23:40:47 37° SW 23:42:19 57° WNW 23:46:45 10° N
Cosmos 1869 3.6 23:40:11 10° N 23:44:15 61° ENE 23:45:30 40° SE
Cosmos 1943 Rocket 2.1 23:40:12 10° NNW 23:45:42 72° WSW 23:48:02 35° S
SL-4 R/B 2.6 23:42:34 10° W 23:46:25 52° NNW 23:50:00 10° ENE
Cosmos 1892 2.9 23:46:05 47° SE 23:46:52 59° E 23:50:42 10° NNE
Cosmos 1758 Rocket 3.5 23:48:38 43° SSW 23:50:00 77° W 23:54:26 10° N
NOSS 2-3 (C) 3.5 23:51:19 45° SSW 23:52:35 78° SE 23:57:25 10° NE
Cosmos 1943 4.1 23:51:37 27° SSE 23:53:44 36° ESE 23:58:50 10° NE
Meteor 1-4 Rocket 4.2 23:51:53 10° NW 23:54:31 20° W 23:54:41 20° W
Lacrosse 5 rocket 4.1 23:52:55 10° NW 23:55:22 17° N 23:57:50 10° NE
